Hurricane Symbol View the latest observations near Atlantic Remnants Of Alberto.

Station RCMC1 - 9414863 - Richmond, CA Image indicating link to RSS feed of recent meteorological observations for station RCMC1


Conditions at RCMC1 as of
(1:48 pm PDT)
2048 GMT on 06/20/2024:
     

Click on the graph icon in the table below to see a time series plot of the last five days of that observation.

5-day plot - Wind Direction Wind Direction (WDIR): S ( 180 deg true )
5-day plot - Wind Speed Wind Speed (WSPD): 9.9 kts
5-day plot - Wind Gust Wind Gust (GST): 13.0 kts
5-day plot - Atmospheric Pressure Atmospheric Pressure (PRES):29.88 in
5-day plot - Air Temperature Air Temperature (ATMP): 55.8 °F
5-day plot - Water Temperature Water Temperature (WTMP): 61.5 °F
5-day plot - Wind Speed at 10 Meters Wind Speed at 10 meters (WSPD10M): 9.7 kts
5-day plot - Wind Speed at 20 Meters Wind Speed at 20 meters (WSPD20M): 11.7 kts
5-day plot -  Wind Speed, Wind Gust and Atmospheric Pressure Combined plot of Wind Speed, Gust, and Air Pressure
NOS Water Level Observation Network Water Level
Previous observations
TIME
(PDT)
5-day plot - Wind Direction
WDIR
 
5-day plot - Wind Speed
WSPD
kts
5-day plot - Wind Gust
GST
kts
5-day plot - Wave Height
WVHT
ft
5-day plot - Dominant Wave Period
DPD
sec
5-day plot - Average Wave Period
APD
sec
5-day plot - Mean Wave Direction
MWD
 
5-day plot - Atmospheric Pressure
PRES
in
5-day plot - Pressure Tendency
PTDY
in
5-day plot - Air Temperature
ATMP
°F
5-day plot - Water Temperature
WTMP
°F
5-day plot - Dew Point
DEWP
°F
5-day plot - Salinity
SAL
psu
5-day plot - Visibility
VIS
nmi
5-day plot - Tide (above MLLW)
TIDE
ft
2024-06-20 01:42 pm S 8.0 12.0----29.88- 55.9 61.5----
2024-06-20 01:36 pm S 7.0 11.1----29.88- 56.3 61.5----
2024-06-20 01:30 pm S 8.0 11.1----29.88- 56.3 61.7----
2024-06-20 01:24 pmSSE 8.0 11.1----29.88- 55.4 61.7----
2024-06-20 01:18 pmSSE 6.0 8.9----29.88- 55.2 61.7----
2024-06-20 01:06 pmSSE 9.9 12.0----29.89- 54.0 61.7----
2024-06-20 01:00 pmSSE 7.0 11.1----29.89-0.02 54.5 61.7----
2024-06-20 12:54 pmSSE 8.0 12.0----29.89- 54.1 61.7----
2024-06-20 12:48 pmSSE 8.9 13.0----29.89- 53.8 61.7----
2024-06-20 12:42 pmSSE 9.9 12.0----29.89- 53.6 61.7----
2024-06-20 12:36 pmSSE 6.0 11.1----29.89- 53.6 61.7----
2024-06-20 12:30 pmSSE 8.0 13.0----29.89-- 61.7----
2024-06-20 12:24 pmSSE 12.0 15.9----29.89-- 61.7----
2024-06-20 12:18 pmSSE 13.0 17.1------------
2024-06-20 12:12 pmSSE 13.0 17.1----29.89- 52.0 61.7----
2024-06-20 12:06 pmSSE 13.0 15.9----29.90- 51.8 61.9----
2024-06-20 12:00 pmSSE 12.0 15.9----29.90+0.00 51.8 61.9----
2024-06-20 11:54 amSSE 14.0 17.1----29.90- 51.8 61.9----
2024-06-20 11:48 amSSE 12.0 15.0------------
2024-06-20 11:42 am S 8.0 14.0----29.90- 52.0 61.7----
2024-06-20 11:36 am S 8.9 15.0----29.90- 52.0 61.7----
2024-06-20 11:30 am S 8.9 14.0----29.91- 52.0 61.7----
2024-06-20 11:24 am S 8.0 13.0----29.90- 52.2 61.7----
2024-06-20 11:18 am S 8.0 15.0----29.90-------
2024-06-20 11:12 am S 8.9 14.0----29.91- 52.2 61.7----
2024-06-20 11:06 am S 8.9 13.0----29.91- 51.8 61.7----
2024-06-20 11:00 am S 8.0 13.0----29.90+0.01 51.4 61.7----
2024-06-20 10:54 am S 8.0 14.0----29.90- 52.0 61.7----
2024-06-20 10:48 am S 8.0 13.0----29.90-- 61.7----
2024-06-20 10:42 am S 9.9 14.0----29.90- 52.3 61.9----
2024-06-20 10:36 am S 8.9 13.0----29.90- 52.5 61.9----
2024-06-20 10:30 amSSE 9.9 12.0----29.90- 52.3 61.9----
2024-06-20 10:24 am S 8.0 12.0----29.91- 52.3 61.9----
2024-06-20 10:18 am S 8.9 12.0----29.91- 52.3 61.9----
2024-06-20 10:12 am S 8.0 12.0----29.90- 52.2 61.7----
2024-06-20 10:06 am S 8.9 13.0----29.91- 52.3 61.7----
2024-06-20 10:00 am S 6.0 12.0----29.91+0.02 52.2 61.7----
2024-06-20 09:54 am S 7.0 12.0----29.91- 52.0 61.7----
2024-06-20 09:48 am S 8.0 11.1----29.90- 51.8 61.7----
2024-06-20 09:42 amSSE 7.0 8.9----29.90- 51.4 61.9----
2024-06-20 09:36 am S 6.0 11.1----29.90- 51.6 61.9----
2024-06-20 09:30 am S 6.0 9.9----29.90- 51.6 61.9----
2024-06-20 09:24 am S 7.0 9.9----29.90- 51.3 62.1----
2024-06-20 09:18 am S 6.0 12.0----29.90- 51.4 62.1----
2024-06-20 09:12 amSSE 11.1 13.0----29.90- 51.1 61.9----
2024-06-20 09:06 am S 7.0 9.9----29.90- 51.6 61.9----
2024-06-20 09:00 amSSE 8.0 11.1----29.90+0.01 51.3 61.7----
2024-06-20 08:54 am S 6.0 9.9----29.89- 51.4 61.7----
2024-06-20 08:48 am S 7.0 11.1------------
2024-06-20 08:42 am S 6.0 11.1----29.89- 51.8 61.5----
2024-06-20 08:36 am S 7.0 12.0----29.89- 51.3 61.5----
2024-06-20 08:30 am S 8.0 12.0----29.89- 51.4 61.5----
2024-06-20 08:24 am S 7.0 9.9----29.89- 51.6 61.7----
2024-06-20 08:18 am S 5.1 9.9------------
2024-06-20 08:12 am S 6.0 9.9----29.89- 51.3 61.5----
2024-06-20 08:06 am S 6.0 8.9----29.89- 51.1 61.3----
2024-06-20 08:00 am S 5.1 9.9----29.89+0.01 51.1 61.5----
2024-06-20 07:54 am S 6.0 11.1----29.89- 50.7 61.7----
2024-06-20 07:48 am S 7.0 8.9----29.89-------
2024-06-20 07:42 am S 5.1 9.9----29.89- 50.9 61.9----
2024-06-20 07:36 am S 8.0 12.0----29.89- 50.5 61.9----
2024-06-20 07:30 am S 8.0 11.1----29.89- 51.1 61.9----
2024-06-20 07:24 am S 6.0 11.1----29.89- 51.3 61.7----
2024-06-20 07:18 am S 7.0 11.1----29.89- 51.1 61.7----
2024-06-20 07:12 am S 7.0 11.1----29.89- 51.3 61.7----
2024-06-20 07:06 am S 8.0 11.1----29.89- 50.9 61.5----
2024-06-20 07:00 am S 6.0 8.0----29.88+0.01 51.4 61.5----
2024-06-20 06:54 amSSW 7.0 8.9----29.89- 51.3 61.5----
2024-06-20 06:48 amSSW 5.1 8.9----29.88- 51.4 61.5----
2024-06-20 06:42 am SW 4.1 7.0----29.88- 51.3 61.5----
2024-06-20 06:36 amSSW 5.1 8.9----29.88- 51.1 61.3----
2024-06-20 06:30 amSSW 7.0 11.1----29.88- 50.9 61.3----
2024-06-20 06:24 am S 6.0 9.9----29.88- 51.3 61.3----
2024-06-20 06:18 amSSW 5.1 8.9----29.88- 51.3 61.3----
2024-06-20 06:12 amSSW 5.1 8.0----29.88- 51.1 61.3----
2024-06-20 06:06 am S 5.1 7.0----29.88- 51.6 61.3----
2024-06-20 06:00 am S 5.1 8.9----29.88+0.00 51.4 61.2----
2024-06-20 05:54 am S 5.1 9.9----29.88- 51.4 61.2----
2024-06-20 05:48 amSSW 5.1 8.0----29.88- 51.4 61.2----
2024-06-20 05:42 amSSW 5.1 8.9----29.88- 51.4 61.2----
2024-06-20 05:36 am S 7.0 9.9----29.88- 52.0 61.2----
2024-06-20 05:30 amSSW 6.0 8.0----29.88- 51.6 61.2----
2024-06-20 05:24 amSSW 4.1 7.0----29.88- 51.8 61.2----
2024-06-20 05:18 am S 5.1 6.0----29.88- 52.0 61.2----
2024-06-20 05:12 am S 5.1 8.0----29.88- 51.6 61.3----
2024-06-20 05:06 am S 7.0 8.9----29.88- 51.4 61.2----
2024-06-20 05:00 amSSW 5.1 8.9----29.88-0.02 51.8 61.2----
2024-06-20 04:48 am S 5.1 8.9------------
2024-06-20 04:42 amSSW 5.1 7.0----29.88- 52.0 61.3----
2024-06-20 04:36 amSSW 6.0 8.9----29.87- 52.3 61.3----
2024-06-20 04:30 am SW 5.1 8.9----29.88- 52.3 61.3----
2024-06-20 04:24 amSSW 6.0 9.9----29.88- 52.2 61.2----
2024-06-20 04:18 am S 8.9 12.0----29.88- 52.0 61.0----
2024-06-20 04:12 amSSW 8.9 12.0----29.87- 52.2 60.8----
2024-06-20 04:06 amSSW 9.9 13.0----29.87- 52.0 60.6----
2024-06-20 04:00 am S 6.0 11.1----29.87-0.02 52.2 60.4----
2024-06-20 03:54 am S 6.0 9.9----29.87- 52.2 60.4----
2024-06-20 03:48 am S 5.1 8.9------------
2024-06-20 03:42 amSSW 5.1 9.9----29.87- 52.3 60.6----
2024-06-20 03:36 am S 6.0 8.9----29.87- 52.2 60.6----
2024-06-20 03:30 am S 6.0 8.9----29.88- 52.5 60.6----
2024-06-20 03:24 am S 6.0 8.9----29.88- 52.3 60.8----
2024-06-20 03:18 am S 5.1 8.0----29.88- 52.5 60.8----
2024-06-20 03:12 am S 5.1 9.9----29.88- 52.3 60.8----
2024-06-20 03:06 am S 8.0 9.9----29.88- 52.2 61.0----
2024-06-20 03:00 am S 7.0 11.1----29.88-0.03 52.3 61.0----
2024-06-20 02:54 amSSW 7.0 9.9----29.88- 52.2 61.0----
2024-06-20 02:48 am S 7.0 11.1----29.88- 52.3 61.2----
2024-06-20 02:42 am S 8.0 9.9----29.88- 52.2 61.2----
2024-06-20 02:30 am S 5.1 8.9----29.89- 52.3 61.2----
2024-06-20 02:24 am S 5.1 8.0----29.89- 52.2 61.3----
2024-06-20 02:18 am S 5.1 8.0----29.89- 52.0 61.2----
2024-06-20 02:12 am S 4.1 7.0----29.89- 52.2 61.2----
2024-06-20 02:06 am S 6.0 8.9----29.89- 52.0 61.2----
2024-06-20 02:00 amSSW 4.1 8.0----29.89+0.00 52.3 61.2----
2024-06-20 01:54 amSSW 7.0 8.9----29.89- 52.2 61.2----
2024-06-20 01:48 am SW 6.0 8.0----29.89- 52.2 61.2----
2024-06-20 01:42 amSSW 6.0 8.9----29.89- 52.3 61.2----
2024-06-20 01:30 amSSW 5.1 8.0----29.89- 52.7 61.2----
2024-06-20 01:18 am S 5.1 7.0----29.90- 52.7 61.2----
2024-06-20 01:12 am S 5.1 6.0----29.90- 52.9 61.2----
2024-06-20 01:06 amSSE 4.1 6.0----29.90- 52.5 61.2----
2024-06-20 01:00 am S 2.9 8.9----29.90+0.00 52.7 61.2----
2024-06-20 12:54 amSSE 6.0 8.0----29.90- 52.5 61.2----
2024-06-20 12:48 amSSE 5.1 7.0----29.90- 52.5 61.2----
2024-06-20 12:42 amSSE 5.1 6.0----29.90- 52.5 61.2----
2024-06-20 12:36 am S 2.9 4.1----29.90- 52.9 61.2----
2024-06-20 12:30 am SW 1.9 5.1----29.91- 52.7 61.0----
2024-06-20 12:24 amSSW 2.9 5.1----29.91- 52.9 61.0----
2024-06-20 12:18 amSSW 4.1 7.0------------
2024-06-20 12:12 amSSW 2.9 7.0----29.91- 53.1 61.0----
2024-06-20 12:06 amSSW 4.1 8.0----29.91- 53.1 60.8----
2024-06-20 12:00 amSSW 4.1 8.0----29.91+0.02 52.9 61.0----
2024-06-19 11:54 pmSSW 4.1 8.9----29.91- 53.1 61.0----
2024-06-19 11:48 pm SW 6.0 8.9----29.91- 52.7 61.0----
2024-06-19 11:42 pm SW 6.0 9.9----29.91- 53.1 61.2----
2024-06-19 11:36 pm SW 6.0 9.9----29.91- 53.2 61.2----
2024-06-19 11:30 pm SW 5.1 9.9----29.91- 53.6 61.2----
2024-06-19 11:24 pm SW 6.0 8.9----29.91- 53.8 61.2----
2024-06-19 11:18 pm SW 5.1 8.0----29.91- 54.0 61.2----
2024-06-19 11:12 pm SW 2.9 5.1----29.91- 54.3 61.2----
2024-06-19 11:06 pm SW 2.9 5.1----29.90- 54.1 61.2----
2024-06-19 11:00 pm SW 2.9 6.0----29.90+0.02 54.3 61.2----
2024-06-19 10:54 pmSSW 2.9 6.0----29.90- 54.5 61.2----
2024-06-19 10:48 pmWSW 4.1 6.0----29.90- 54.3 61.2----
2024-06-19 10:42 pm SW 4.1 7.0----29.90- 54.5 61.2----
2024-06-19 10:36 pm SW 5.1 7.0----29.90- 54.5 61.0----
2024-06-19 10:30 pm SW 5.1 7.0----29.90- 54.9 61.0----
2024-06-19 10:24 pm SW 4.1 6.0----29.90- 54.9 61.0----
2024-06-19 10:18 pm SW 6.0 8.0----29.90- 55.0 61.0----
2024-06-19 10:12 pmWSW 5.1 7.0----29.91- 55.2 61.2----
2024-06-19 10:06 pmWSW 5.1 8.0----29.91- 55.2 61.2----
2024-06-19 10:00 pmWSW 5.1 8.0----29.90+0.04 55.2 61.2----
2024-06-19 09:54 pmWSW 5.1 7.0----29.90- 55.4 61.2----
2024-06-19 09:48 pmWSW 5.1 8.9------------
2024-06-19 09:42 pmWSW 6.0 8.9----29.90- 55.4 61.2----
2024-06-19 09:36 pmWSW 5.1 8.0----29.89- 55.8 61.2----
2024-06-19 09:30 pm SW 5.1 8.0----29.89- 55.6 61.2----
2024-06-19 09:24 pmWSW 6.0 8.9----29.89- 55.6 61.2----
2024-06-19 09:18 pmWSW 6.0 8.9----29.89-------
2024-06-19 09:12 pmWSW 6.0 8.0----29.89- 56.1 61.2----
2024-06-19 09:06 pmWSW 6.0 8.0----29.89- 56.3 61.2----
2024-06-19 09:00 pmWSW 6.0 8.9----29.89+0.03 56.5 61.3----
2024-06-19 08:54 pmWSW 6.0 8.0----29.89- 56.7 61.5----
2024-06-19 08:48 pmWSW 6.0 8.0----29.89-- 61.7----
2024-06-19 08:42 pmWSW 5.1 7.0----29.88- 57.2 61.7----
2024-06-19 08:36 pmWSW 5.1 7.0----29.88- 57.4 61.9----
2024-06-19 08:30 pm SW 4.1 6.0----29.88- 57.6 62.2----
2024-06-19 08:24 pm SW 2.9 6.0----29.88- 57.9 62.2----
2024-06-19 08:18 pm SW 2.9 7.0----29.88-- 62.4----
2024-06-19 08:12 pm SW 5.1 8.9----29.88- 58.1 62.4----
2024-06-19 08:06 pm SW 5.1 8.0----29.88- 58.1 62.4----
2024-06-19 08:00 pm SW 4.1 7.0----29.88+0.01 58.6 62.4----
2024-06-19 07:54 pm SW 4.1 7.0----29.88- 59.2 62.6----
2024-06-19 07:48 pm SW 4.1 7.0----29.88- 59.2 62.6----
2024-06-19 07:42 pm SW 5.1 7.0----29.87- 59.4 62.8----
2024-06-19 07:36 pm SW 5.1 7.0----29.87- 59.4 62.8----
2024-06-19 07:30 pm SW 6.0 8.0----29.87- 59.5 62.6----
2024-06-19 07:24 pm SW 4.1 7.0----29.87- 60.1 62.4----
2024-06-19 07:18 pm SW 4.1 6.0----29.86- 60.6 62.4----
2024-06-19 07:12 pmWSW 2.9 6.0----29.86- 60.6 62.4----
2024-06-19 07:06 pm SW 1.9 5.1----29.86- 61.5 62.2----
2024-06-19 07:00 pmSSE 1.9 4.1----29.86-0.02 61.9 62.2----
2024-06-19 06:54 pm W 1.9 4.1----29.86- 61.7 62.8----
2024-06-19 06:48 pmSSW 1.9 4.1------------
2024-06-19 06:42 pm NW 1.9 4.1----29.86- 60.6 62.8----
2024-06-19 06:36 pmNNW 2.9 2.9----29.86- 60.4 62.4----
2024-06-19 06:30 pmNNW 1.9 2.9----29.86- 60.6 61.9----
2024-06-19 06:24 pmNNE 2.9 2.9----29.86- 60.6 61.7----
2024-06-19 06:18 pmNNE 1.0 2.9----29.86- 61.0 61.7----
2024-06-19 06:12 pm- 0.0 4.1----29.86- 60.6 61.5----
2024-06-19 06:06 pm NW 2.9 6.0----29.85- 60.6 61.3----
2024-06-19 06:00 pmWSW 2.9 5.1----29.86-0.03 61.2 61.2----
2024-06-19 05:54 pm N 1.0 1.9----29.86- 61.7 60.8----
2024-06-19 05:48 pmNNW 1.0 5.1----29.86-- 60.6----
2024-06-19 05:42 pmSSE 1.9 5.1----29.86- 61.9 60.4----
2024-06-19 05:36 pmSSW 1.9 7.0----29.86- 61.5 60.4----
2024-06-19 05:30 pmWSW 2.9 5.1----29.86- 60.3 60.4----
2024-06-19 05:24 pm SW 2.9 8.9----29.86- 60.8 60.3----
2024-06-19 05:18 pm SW 5.1 8.9----29.87-------
2024-06-19 05:12 pmWSW 4.1 6.0----29.87- 60.3 60.6----
2024-06-19 05:06 pmWNW 1.9 6.0----29.87- 61.2 60.8----
2024-06-19 05:00 pmSSE 4.1 7.0----29.87-0.03 60.3 61.2----
2024-06-19 04:54 pm S 1.9 5.1----29.87- 61.0 61.7----
2024-06-19 04:48 pmWNW 5.1 7.0----29.87-- 62.1----
2024-06-19 04:42 pmSSE 6.0 11.1----29.87- 59.4 61.9----
2024-06-19 04:36 pm S 4.1 8.0----29.87- 60.3 62.4----
2024-06-19 04:30 pm W 2.9 9.9----29.87- 60.1 62.1----
2024-06-19 04:24 pmSSE 8.9 11.1----29.87- 58.8 62.1----
2024-06-19 04:18 pm S 6.0 11.1----29.87- 59.0 61.7----
2024-06-19 04:12 pmSSE 7.0 12.0----29.87- 58.8 61.7----
2024-06-19 04:06 pmSSE 8.9 12.0----29.88- 57.9 61.7----
2024-06-19 04:00 pmSSE 8.9 12.0----29.88- 58.3 61.3----
2024-06-19 03:54 pmSSE 8.0 9.9----29.88- 58.3 61.5----
2024-06-19 03:48 pmSSE 8.0 12.0----29.88-- 61.7----
2024-06-19 03:42 pmSSE 8.0 11.1----29.88-- 61.5----
2024-06-19 03:36 pmSSE 8.0 11.1----29.88-- 61.3----
2024-06-19 03:30 pm S 6.0 11.1----29.88- 58.3 61.3----
2024-06-19 03:24 pmSSE 7.0 9.9----29.88- 58.1 61.2----
2024-06-19 03:18 pmSSE 8.0 12.0----29.88- 57.7-----
2024-06-19 03:12 pmSSE 8.0 12.0----29.89- 57.4-----
2024-06-19 03:06 pmSSE 8.0 12.0----29.89- 57.4-----
2024-06-19 03:00 pmSSE 8.9 12.0----29.89-0.02 57.6 61.2----
2024-06-19 02:54 pmSSE 8.0 11.1----29.89- 57.9 61.0----
2024-06-19 02:48 pm S 7.0 12.0------------
2024-06-19 02:42 pm S 8.0 11.1----29.89- 57.9 61.2----
2024-06-19 02:36 pm S 6.0 8.9----29.89- 58.5 61.2----
2024-06-19 02:30 pmSSE 6.0 11.1----29.89- 58.1 61.2----
2024-06-19 02:24 pm S 7.0 9.9----29.89- 57.7 61.2----
2024-06-19 02:18 pmSSE 7.0 11.1----29.89-------
2024-06-19 02:12 pmSSE 8.0 9.9----29.89- 57.4 61.2----
2024-06-19 02:06 pmSSE 8.0 11.1----29.89- 57.0 61.2----
2024-06-19 02:00 pmSSE 8.0 11.1----29.90+0.00 56.8 61.2----
2024-06-19 01:54 pmSSE 8.0 9.9----29.90- 56.7 61.5----